• In Deutschland
  • Länderverzeichnis
  • Für 7 Tage
  • Wassertemperatur
  • Satellitenkarten
  • Wetterkarte
  • Widgets
  • user-avatar
    Anmelden

    Stündliche Wetter Shkoder

    Heute, 23 Mai, Mittwoch

    Zeit Temperatur Niederschläge Wind Luftdruck Luftfeuchtigkeit
    00:00 +18°C° 0,2 mm 2 m/S 741 mmHg 75%
    01:00 +18°C° 0,2 mm 2 m/S 741 mmHg 74%
    02:00 +18°C° 0,2 mm 2 m/S 741 mmHg 73%
    03:00 +18°C° 0,2 mm 2 m/S 741 mmHg 73%
    04:00 +18°C° 0,2 mm 2 m/S 740 mmHg 72%
    05:00 +19°C° 0,2 mm 2 m/S 741 mmHg 72%
    06:00 +21°C° 0,2 mm 1 m/S 741 mmHg 71%
    07:00 +23°C° 0,2 mm 1 m/S 741 mmHg 70%
    08:00 +23°C° 0,5 mm 1 m/S 741 mmHg 69%
    09:00 +24°C° 0,5 mm 1 m/S 741 mmHg 67%
    10:00 +24°C° 0,5 mm 2 m/S 741 mmHg 65%
    11:00 +25°C° 0,5 mm 2 m/S 741 mmHg 63%
    12:00 +26°C° 0,5 mm 2 m/S 740 mmHg 61%
    13:00 +26°C° 0,5 mm 1 m/S 740 mmHg 58%
    14:00 +25°C° 0,9 mm 1 m/S 740 mmHg 64%
    15:00 +25°C° 0,9 mm 1 m/S 740 mmHg 70%
    16:00 +24°C° 0,9 mm 2 m/S 739 mmHg 76%
    17:00 +23°C° 0,6 mm 1 m/S 739 mmHg 78%
    18:00 +22°C° 0,6 mm 1 m/S 739 mmHg 79%
    19:00 +21°C° 0,6 mm 1 m/S 739 mmHg 81%
    20:00 +20°C° 0,3 mm 1 m/S 740 mmHg 82%
    21:00 +20°C° 0,3 mm 1 m/S 740 mmHg 82%
    22:00 +18°C° 0,3 mm 2 m/S 740 mmHg 83%
    23:00 +19°C° 0,2 mm 1 m/S 740 mmHg 83%

    Morgen, 24 Mai, Donnerstag

    Zeit Temperatur Niederschläge Wind Luftdruck Luftfeuchtigkeit
    00:00 +19°C° 0,2 mm 1 m/S 740 mmHg 84%
    01:00 +18°C° 0,2 mm 1 m/S 739 mmHg 84%
    02:00 +18°C° 0 mm 1 m/S 739 mmHg 84%
    03:00 +18°C° 0 mm 1 m/S 739 mmHg 84%
    04:00 +17°C° 0 mm 2 m/S 739 mmHg 84%
    05:00 +19°C° 0 mm 1 m/S 739 mmHg 80%
    06:00 +20°C° 0 mm 1 m/S 739 mmHg 77%
    07:00 +22°C° 0 mm 1 m/S 739 mmHg 73%
    08:00 +23°C° 0,1 mm 1 m/S 739 mmHg 69%
    09:00 +24°C° 0,1 mm 2 m/S 739 mmHg 65%
    10:00 +26°C° 0,1 mm 2 m/S 739 mmHg 61%
    11:00 +26°C° 0,5 mm 2 m/S 739 mmHg 61%
    12:00 +26°C° 0,5 mm 3 m/S 739 mmHg 61%
    13:00 +27°C° 0,5 mm 3 m/S 738 mmHg 61%
    14:00 +26°C° 0,9 mm 3 m/S 738 mmHg 64%
    15:00 +26°C° 0,9 mm 3 m/S 738 mmHg 66%
    16:00 +25°C° 0,9 mm 3 m/S 738 mmHg 69%
    17:00 +24°C° 0,6 mm 2 m/S 738 mmHg 74%
    18:00 +23°C° 0,6 mm 2 m/S 738 mmHg 79%
    19:00 +22°C° 0,6 mm 1 m/S 738 mmHg 84%
    20:00 +20°C° 0,2 mm 2 m/S 738 mmHg 84%
    21:00 +20°C° 0,2 mm 2 m/S 739 mmHg 84%
    22:00 +19°C° 0,2 mm 2 m/S 739 mmHg 84%
    23:00 +19°C° 0 mm 2 m/S 739 mmHg 85%

    übermorgen, 25 Mai, Freitag

    Zeit Temperatur Niederschläge Wind Luftdruck Luftfeuchtigkeit
    00:00 +18°C° 0 mm 2 m/S 739 mmHg 85%
    01:00 +18°C° 0 mm 2 m/S 739 mmHg 86%
    02:00 +17°C° 0 mm 2 m/S 739 mmHg 86%
    03:00 +17°C° 0 mm 2 m/S 739 mmHg 87%
    04:00 +17°C° 0 mm 2 m/S 738 mmHg 87%
    05:00 +18°C° 0 mm 2 m/S 739 mmHg 84%
    06:00 +20°C° 0 mm 2 m/S 739 mmHg 80%
    07:00 +21°C° 0 mm 2 m/S 739 mmHg 76%
    08:00 +24°C° 0 mm 2 m/S 739 mmHg 69%
    09:00 +25°C° 0 mm 2 m/S 739 mmHg 62%
    10:00 +27°C° 0 mm 2 m/S 739 mmHg 56%
    11:00 +27°C° 0 mm 2 m/S 739 mmHg 54%
    12:00 +28°C° 0 mm 2 m/S 739 mmHg 52%
    13:00 +28°C° 0 mm 3 m/S 739 mmHg 50%
    14:00 +28°C° 0,1 mm 3 m/S 739 mmHg 52%
    15:00 +28°C° 0,1 mm 3 m/S 738 mmHg 54%
    16:00 +28°C° 0,1 mm 3 m/S 738 mmHg 56%
    17:00 +26°C° 0,1 mm 3 m/S 739 mmHg 63%
    18:00 +24°C° 0,1 mm 2 m/S 739 mmHg 70%
    19:00 +21°C° 0,1 mm 2 m/S 739 mmHg 76%
    20:00 +20°C° 0 mm 2 m/S 739 mmHg 77%
    21:00 +20°C° 0 mm 2 m/S 740 mmHg 78%
    22:00 +19°C° 0 mm 3 m/S 740 mmHg 79%
    23:00 +19°C° 0 mm 3 m/S 740 mmHg 81%

    26 Mai, Samstag

    Zeit Temperatur Niederschläge Wind Luftdruck Luftfeuchtigkeit
    00:00 +18°C° 0 mm 3 m/S 740 mmHg 82%
    01:00 +18°C° 0 mm 3 m/S 740 mmHg 84%
    02:00 +18°C° 0 mm 3 m/S 740 mmHg 84%
    03:00 +17°C° 0 mm 3 m/S 740 mmHg 85%
    04:00 +17°C° 0 mm 3 m/S 740 mmHg 85%
    05:00 +19°C° 0 mm 3 m/S 741 mmHg 81%
    06:00 +20°C° 0 mm 3 m/S 741 mmHg 77%
    07:00 +22°C° 0 mm 3 m/S 741 mmHg 73%
    08:00 +24°C° 0 mm 3 m/S 741 mmHg 67%
    09:00 +26°C° 0 mm 3 m/S 741 mmHg 62%
    10:00 +27°C° 0 mm 3 m/S 742 mmHg 56%
    11:00 +28°C° 0 mm 3 m/S 741 mmHg 54%
    12:00 +28°C° 0 mm 3 m/S 741 mmHg 53%
    13:00 +29°C° 0 mm 3 m/S 741 mmHg 51%
    14:00 +29°C° 0 mm 3 m/S 741 mmHg 53%
    15:00 +29°C° 0 mm 3 m/S 741 mmHg 54%
    16:00 +29°C° 0 mm 3 m/S 740 mmHg 56%
    17:00 +27°C° 0,1 mm 3 m/S 741 mmHg 63%
    18:00 +25°C° 0,1 mm 3 m/S 741 mmHg 71%
    19:00 +22°C° 0,1 mm 3 m/S 741 mmHg 78%
    20:00 +21°C° 0 mm 3 m/S 741 mmHg 80%
    21:00 +21°C° 0 mm 3 m/S 741 mmHg 81%
    22:00 +20°C° 0 mm 3 m/S 742 mmHg 83%
    23:00 +19°C° 0 mm 3 m/S 742 mmHg 84%

    27 Mai, Sonntag

    Zeit Temperatur Niederschläge Wind Luftdruck Luftfeuchtigkeit
    00:00 +19°C° 0 mm 3 m/S 742 mmHg 85%
    01:00 +19°C° 0 mm 3 m/S 741 mmHg 86%
    02:00 +19°C° 0 mm 3 m/S 741 mmHg 86%
    03:00 +19°C° 0 mm 3 m/S 741 mmHg 87%
    04:00 +18°C° 0 mm 3 m/S 741 mmHg 87%
    05:00 +20°C° 0 mm 3 m/S 742 mmHg 84%
    06:00 +21°C° 0 mm 3 m/S 742 mmHg 80%
    07:00 +22°C° 0 mm 3 m/S 742 mmHg 77%
    08:00 +25°C° 0 mm 3 m/S 742 mmHg 70%
    09:00 +26°C° 0 mm 3 m/S 742 mmHg 64%
    10:00 +28°C° 0 mm 3 m/S 742 mmHg 58%
    11:00 +28°C° 0,1 mm 3 m/S 742 mmHg 55%
    12:00 +29°C° 0,1 mm 3 m/S 741 mmHg 52%
    13:00 +30°C° 0,1 mm 3 m/S 741 mmHg 50%
    14:00 +29°C° 0,1 mm 3 m/S 741 mmHg 51%
    15:00 +29°C° 0,1 mm 3 m/S 741 mmHg 53%
    16:00 +29°C° 0,1 mm 3 m/S 741 mmHg 55%
    17:00 +27°C° 0 mm 3 m/S 741 mmHg 61%
    18:00 +25°C° 0 mm 2 m/S 741 mmHg 68%
    19:00 +23°C° 0 mm 2 m/S 741 mmHg 75%
    20:00 +21°C° 0 mm 2 m/S 741 mmHg 76%
    21:00 +20°C° 0 mm 2 m/S 742 mmHg 77%
    22:00 +19°C° 0 mm 2 m/S 742 mmHg 78%
    23:00 +19°C° 0 mm 3 m/S 742 mmHg 78%

    28 Mai, Montag

    Zeit Temperatur Niederschläge Wind Luftdruck Luftfeuchtigkeit
    00:00 +19°C° 0 mm 3 m/S 742 mmHg 79%
    01:00 +18°C° 0 mm 3 m/S 742 mmHg 79%
    02:00 +18°C° 0 mm 3 m/S 741 mmHg 80%
    03:00 +17°C° 0 mm 3 m/S 741 mmHg 80%
    04:00 +17°C° 0 mm 3 m/S 741 mmHg 80%
    05:00 +19°C° 0 mm 3 m/S 741 mmHg 76%
    06:00 +20°C° 0 mm 3 m/S 741 mmHg 72%
    07:00 +22°C° 0 mm 3 m/S 741 mmHg 68%
    08:00 +24°C° 0 mm 3 m/S 741 mmHg 61%
    09:00 +26°C° 0 mm 2 m/S 741 mmHg 53%
    10:00 +27°C° 0 mm 2 m/S 741 mmHg 46%
    11:00 +28°C° 0 mm 2 m/S 741 mmHg 44%
    12:00 +28°C° 0 mm 3 m/S 741 mmHg 43%
    13:00 +29°C° 0 mm 3 m/S 741 mmHg 42%
    14:00 +29°C° 0 mm 3 m/S 740 mmHg 45%
    15:00 +28°C° 0 mm 3 m/S 740 mmHg 47%
    16:00 +28°C° 0 mm 3 m/S 740 mmHg 50%
    17:00 +26°C° 0 mm 3 m/S 740 mmHg 57%
    18:00 +24°C° 0 mm 2 m/S 740 mmHg 64%
    19:00 +21°C° 0 mm 2 m/S 740 mmHg 72%
    20:00 +20°C° 0 mm 2 m/S 741 mmHg 73%
    21:00 +19°C° 0 mm 3 m/S 741 mmHg 75%
    22:00 +18°C° 0 mm 3 m/S 741 mmHg 77%
    23:00 +18°C° 0 mm 3 m/S 741 mmHg 77%
    Mehr zeigen